Vorticity
5 4 5 4 5 6 5 6 5 3 3 2 2 4 7 4 2 1 1 1 2 3 6 6 6 7 9 11 11 9 5 6 6 16 10 24 13 14 15 13 12 16 14 19 22 14 13
5 5 4 3 7 6 5 4 5 3 4 3 4 4 3 7 7 3 1 2 1 4 6 6 7 7 8 8 11 11 10 6 5 12 11 19 13 12 17 20 17 14 10 13 17 31 16
6 6 6 3 6 4 6 4 4 4 4 3 5 4 4 5 10 8 4 3 1 4 4 4 5 7 6 10 10 9 10 9 7 6 15 9 21 10 12 1 -8 21 28 16 14 18 31
3 6 6 6 4 6 4 4 4 4 4 5 4 4 4 4 4 10 7 6 4 3 5 5 3 6 5 7 11 7 10 12 10 7 11 13 15 17 8 4 -6 17 26 11 12 19 36
5 4 4 5 7 6 6 5 4 4 4 4 4 4 4 3 5 7 7 8 4 3 4 7 5 6 6 7 2 8 9 7 10 14 8 15 12 18 14 15 11 27 -7 25 17 16 21
5 5 5 5 6 7 7 7 6 5 3 4 5 3 3 4 5 5 7 7 6 1 -1 7 6 6 4 3 6 5 6 10 8 9 13 7 12 11 12 14 15 8 18 14 20 24 18
8 6 6 5 5 7 6 7 6 5 4 5 6 5 3 4 4 5 6 4 6 1 1 6 3 5 6 5 6 3 7 5 9 11 9 15 7 13 10 15 15 16 13 14 17 18 22
5 7 8 6 5 5 5 6 7 7 4 5 3 6 4 4 4 -1 2 4 5 3 -2 11 2 4 5 4 4 5 8 4 4 6 16 8 15 7 11 14 10 15 19 12 13 16 22
3 6 4 7 6 5 7 4 7 6 6 10 4 5 7 5 7 8 6 4 3 5 4 10 2 5 1 4 4 5 1 8 4 3 5 10 10 13 10 6 17 12 13 19 13 18 18
-4 9 13 2 13 6 7 5 5 9 9 7 4 7 3 7 5 4 1 4 4 -0 2 7 1 2 3 2 4 5 4 2 5 10 5 4 4 11 8 16 8 10 19 9 16 16 12
10 1 5 9 14 -4 16 8 8 7 11 5 8 6 1 5 9 5 2 6 7 -0 -5 0 6 -3 8 4 4 5 3 5 7 7 10 3 10 4 11 7 15 8 8 17 12 16 13
5 6 6 15 9 6 -1 -2 -7 23 17 8 5 15 4 6 2 3 9 3 1 5 2 5 3 2 1 10 5 3 5 5 5 10 3 7 13 10 5 8 12 15 14 7 19 13 10
8 4 6 5 9 15 11 5 -16 6 16 25 16 7 11 1 3 6 6 -2 2 5 1 -5 9 4 1 5 10 5 6 4 8 7 6 13 12 8 10 7 6 11 13 14 9 9 15
5 10 6 12 4 -0 -3 -1 22 -0 11 8 15 12 15 5 9 4 0 9 10 6 7 2 -5 15 6 8 5 8 7 4 4 4 2 4 9 7 4 10 6 5 9 8 7 13 7
4 4 6 3 7 9 -4 5 10 -6 23 -5 4 8 21 3 13 9 10 5 8 3 7 3 1 4 13 2 4 8 9 8 5 4 3 8 2 9 3 10 9 4 10 11 13 9 9
3 4 5 7 4 12 8 16 8 8 21 -1 12 13 9 3 22 13 11 2 2 3 5 3 4 5 2 8 4 5 13 13 4 7 6 6 4 10 6 8 9 9 12 16 9 11 17
4 8 5 7 5 7 11 18 13 19 -3 12 24 -3 14 2 14 28 4 18 4 4 7 9 5 -0 5 5 9 5 11 8 5 9 7 7 9 13 8 4 8 10 8 8 10 5 10
5 6 4 7 7 5 9 8 22 19 39 18 -9 11 10 16 9 12 17 25 5 4 3 5 7 1 6 13 6 8 9 11 5 6 8 7 10 7 9 11 7 6 6 6 6 15 -1
6 6 5 3 7 7 7 15 11 14 18 22 7 0 9 12 14 13 10 13 9 2 9 8 2 13 3 8 7 2 13 9 9 7 9 10 8 14 6 6 11 6 6 1 3 2 8
9 6 7 12 8 11 7 7 10 6 17 22 14 9 4 2 20 16 16 15 15 7 8 14 7 12 5 14 6 1 12 8 5 15 14 9 3 14 9 3 6 6 9 3 4 1 6
5 9 6 4 4 -0 3 7 7 8 10 19 10 0 -7 -7 -2 4 8 1 3 11 9 12 12 10 6 10 11 17 9 11 16 14 9 6 11 11 11 7 7 2 8 9 4 1 -1
7 7 8 3 7 8 4 5 1 7 10 12 7 12 7 5 8 8 7 8 13 1 11 17 10 8 16 12 10 18 11 15 9 6 5 19 12 8 10 5 -1 -5 17 -5 2 10 3
4 3 4 7 6 12 9 6 4 8 7 16 16 5 7 18 16 13 10 9 7 10 14 14 13 16 12 9 10 8 11 6 14 13 19 10 9 9 0 2 2 -12 18 16 12 9 3
8 2 3 6 6 3 13 9 6 7 7 4 5 12 17 12 13 13 19 23 19 18 18 16 9 12 13 15 12 10 20 19 17 12 6 2 3 2 2 1 1 5 6 6 3 7 6
6 11 2 2 3 4 3 6 11 5 7 8 13 10 10 11 11 17 16 17 15 13 18 22 18 16 10 14 14 14 5 5 3 1 2 10 7 2 1 2 4 5 1 9 6 6 6
-5 3 3 3 3 4 1 6 12 11 4 9 4 7 10 10 12 10 12 9 13 13 14 11 14 15 11 7 4 5 4 4 5 8 3 7 1 4 3 3 4 7 3 5 6 5 11
17 18 3 7 4 5 6 13 6 10 2 2 6 3 0 7 8 8 7 10 8 9 10 7 6 5 6 7 6 3 2 4 4 1 1 5 6 7 7 9 7 7 4 4 5 6 3
14 11 6 7 2 16 8 8 5 10 4 6 6 6 7 11 4 8 9 6 7 6 4 4 9 15 2 -2 6 8 3 2 2 3 6 10 8 7 5 4 3 7 7 5 6 6 6
13 10 4 7 7 10 7 8 5 6 7 9 7 5 6 8 6 11 8 7 7 4 4 15 -9 4 10 5 3 3 2 -1 5 5 3 8 4 7 9 9 8 5 8 7 6 7 8
Height
5849 5849 5848 5846 5846 5844 5843 5842 5840 5838 5836 5835 5833 5831 5828 5825 5821 5817 5814 5809 5804 5799 5793 5788 5782 5777 5770 5764 5757 5749 5741 5732 5724 5714 5706 5697 5689 5683 5678 5674 5672 5670 5670 5671 5672 5676 5683
5850 5849 5848 5847 5846 5844 5843 5842 5841 5839 5837 5834 5832 5830 5827 5824 5821 5817 5813 5809 5804 5799 5793 5788 5782 5776 5769 5764 5756 5747 5740 5732 5724 5715 5705 5698 5690 5684 5678 5674 5671 5668 5667 5667 5669 5673 5679
5850 5849 5847 5846 5845 5845 5843 5842 5841 5839 5836 5834 5832 5829 5827 5824 5820 5816 5812 5808 5804 5799 5794 5788 5782 5776 5770 5764 5754 5747 5741 5732 5725 5717 5706 5699 5691 5685 5679 5675 5672 5667 5665 5664 5666 5670 5676
5849 5848 5848 5846 5845 5844 5842 5841 5840 5838 5836 5834 5831 5828 5825 5822 5819 5815 5812 5808 5803 5799 5794 5789 5783 5777 5770 5764 5755 5747 5739 5732 5725 5715 5708 5701 5693 5686 5681 5676 5672 5669 5666 5664 5664 5666 5672
5847 5846 5845 5844 5843 5842 5841 5839 5838 5836 5834 5832 5829 5826 5824 5821 5817 5814 5810 5806 5803 5798 5793 5788 5784 5777 5770 5762 5755 5748 5741 5736 5725 5719 5712 5704 5696 5689 5684 5678 5674 5671 5666 5665 5665 5665 5668
5845 5843 5842 5840 5840 5839 5838 5837 5836 5834 5832 5829 5827 5825 5822 5819 5816 5812 5809 5805 5801 5797 5793 5788 5782 5779 5771 5763 5756 5750 5745 5735 5730 5723 5714 5706 5698 5689 5683 5679 5675 5671 5667 5666 5665 5666 5668
5842 5841 5840 5839 5838 5837 5835 5833 5831 5830 5828 5827 5824 5822 5819 5817 5814 5811 5808 5804 5802 5798 5792 5787 5781 5775 5770 5763 5759 5753 5746 5737 5730 5722 5714 5707 5699 5694 5686 5681 5676 5673 5670 5669 5667 5667 5668
5839 5838 5838 5837 5835 5833 5830 5829 5827 5826 5824 5823 5821 5819 5816 5814 5811 5808 5806 5802 5799 5795 5791 5786 5780 5776 5770 5766 5759 5752 5747 5741 5733 5725 5718 5712 5703 5696 5691 5686 5680 5677 5673 5670 5669 5668 5670
5836 5835 5833 5832 5830 5830 5829 5826 5824 5821 5820 5819 5817 5815 5813 5810 5807 5804 5802 5799 5796 5792 5789 5784 5780 5775 5770 5765 5759 5754 5748 5741 5734 5727 5720 5713 5706 5700 5695 5689 5684 5680 5677 5673 5672 5672 5674
5831 5830 5828 5826 5825 5825 5824 5821 5820 5817 5816 5813 5812 5811 5809 5807 5805 5801 5798 5796 5792 5788 5786 5783 5778 5773 5769 5764 5759 5753 5746 5741 5733 5729 5723 5717 5710 5704 5698 5693 5687 5682 5679 5676 5674 5674 5675
5826 5824 5823 5821 5821 5821 5819 5818 5816 5814 5811 5808 5805 5805 5803 5801 5800 5797 5795 5792 5788 5785 5782 5779 5774 5770 5765 5761 5757 5753 5747 5742 5737 5730 5725 5720 5714 5707 5701 5696 5690 5686 5681 5678 5677 5675 5677
5821 5819 5817 5816 5815 5815 5814 5812 5811 5808 5806 5802 5799 5797 5797 5796 5794 5792 5789 5786 5785 5783 5779 5775 5771 5767 5764 5760 5755 5751 5747 5741 5738 5732 5725 5719 5713 5708 5702 5698 5695 5691 5686 5682 5680 5678 5678
5815 5814 5812 5810 5809 5808 5807 5806 5803 5801 5798 5796 5793 5789 5789 5789 5789 5786 5784 5781 5779 5777 5775 5771 5767 5763 5759 5757 5752 5747 5742 5738 5733 5730 5725 5719 5712 5708 5704 5701 5696 5692 5691 5686 5684 5680 5679
5809 5808 5806 5804 5803 5802 5800 5799 5795 5794 5792 5789 5785 5782 5780 5781 5780 5780 5778 5777 5773 5771 5768 5765 5762 5759 5755 5752 5750 5746 5741 5735 5730 5726 5722 5717 5712 5707 5702 5699 5695 5693 5689 5685 5683 5682 5681
5803 5802 5800 5798 5797 5795 5794 5792 5790 5787 5784 5781 5779 5777 5774 5773 5771 5773 5772 5771 5767 5765 5763 5760 5758 5753 5751 5747 5744 5740 5736 5732 5727 5724 5721 5716 5714 5709 5703 5699 5697 5693 5691 5689 5687 5685 5683
5797 5796 5794 5792 5789 5788 5786 5783 5780 5778 5778 5775 5774 5771 5768 5766 5765 5764 5765 5764 5761 5759 5756 5753 5750 5748 5744 5742 5738 5734 5730 5727 5723 5720 5717 5713 5712 5707 5703 5699 5697 5693 5692 5690 5687 5685 5684
5791 5789 5788 5786 5783 5782 5778 5775 5772 5770 5767 5765 5766 5763 5762 5759 5759 5758 5757 5757 5755 5753 5750 5748 5745 5741 5738 5734 5733 5730 5728 5724 5720 5716 5713 5709 5709 5708 5701 5696 5693 5692 5687 5686 5685 5683 5682
5783 5782 5781 5779 5777 5774 5771 5767 5764 5760 5758 5758 5759 5759 5757 5754 5754 5750 5750 5749 5749 5747 5744 5741 5739 5736 5732 5729 5726 5724 5722 5718 5714 5710 5708 5705 5703 5700 5700 5696 5692 5690 5686 5683 5682 5684 5680
5775 5775 5774 5772 5771 5767 5763 5761 5756 5754 5752 5752 5752 5752 5750 5747 5746 5744 5742 5742 5740 5739 5737 5734 5731 5729 5725 5723 5718 5716 5714 5712 5710 5706 5700 5701 5697 5694 5693 5694 5690 5687 5684 5681 5681 5681 5678
5768 5768 5768 5765 5762 5760 5757 5753 5751 5747 5746 5746 5746 5745 5743 5740 5739 5737 5735 5735 5733 5730 5729 5725 5723 5721 5718 5716 5712 5709 5706 5703 5703 5700 5697 5692 5694 5693 5688 5685 5685 5684 5681 5677 5676 5675 5677
5760 5760 5759 5757 5754 5752 5749 5747 5745 5742 5740 5739 5739 5739 5736 5736 5733 5731 5729 5727 5724 5721 5720 5717 5715 5712 5708 5707 5704 5701 5697 5696 5695 5692 5692 5687 5687 5685 5685 5680 5682 5680 5678 5675 5673 5670 5666
5752 5752 5752 5751 5749 5747 5742 5739 5738 5736 5733 5733 5734 5734 5730 5729 5725 5720 5718 5718 5715 5713 5710 5708 5706 5703 5700 5697 5694 5691 5691 5689 5686 5684 5682 5682 5679 5677 5683 5676 5675 5677 5673 5671 5668 5666 5661
5743 5743 5744 5742 5741 5740 5737 5733 5731 5730 5727 5726 5726 5727 5724 5720 5716 5712 5709 5707 5706 5704 5702 5699 5696 5694 5693 5690 5686 5683 5682 5682 5678 5677 5675 5674 5671 5670 5674 5670 5667 5669 5664 5661 5662 5659 5652
5733 5733 5735 5734 5733 5732 5730 5728 5726 5723 5721 5720 5720 5719 5716 5712 5709 5706 5702 5699 5697 5696 5695 5691 5688 5686 5685 5682 5680 5679 5678 5675 5673 5672 5670 5669 5665 5663 5660 5658 5655 5654 5650 5647 5646 5642 5640
5723 5724 5726 5725 5725 5722 5723 5720 5721 5718 5717 5712 5714 5712 5710 5706 5702 5701 5697 5694 5690 5687 5685 5684 5681 5679 5677 5675 5672 5672 5673 5671 5669 5667 5665 5662 5660 5657 5654 5650 5648 5646 5642 5639 5636 5632 5627
5713 5715 5716 5717 5716 5715 5713 5711 5712 5711 5710 5704 5706 5704 5701 5699 5696 5694 5690 5688 5686 5682 5680 5675 5673 5672 5670 5667 5666 5664 5661 5660 5658 5656 5653 5650 5648 5645 5642 5637 5633 5629 5625 5620 5620 5617 5615
5703 5704 5705 5707 5707 5705 5703 5702 5702 5702 5700 5698 5698 5698 5694 5692 5689 5688 5685 5681 5677 5675 5674 5672 5669 5667 5665 5663 5660 5658 5653 5651 5648 5646 5643 5640 5635 5630 5625 5619 5616 5614 5611 5607 5604 5604 5599
5692 5693 5695 5696 5695 5696 5693 5693 5692 5691 5690 5690 5690 5688 5686 5683 5681 5679 5677 5674 5671 5667 5665 5665 5663 5662 5658 5656 5652 5649 5644 5641 5638 5634 5630 5626 5621 5615 5609 5604 5601 5599 5596 5593 5588 5583 5580
5682 5683 5685 5685 5685 5685 5684 5684 5683 5681 5681 5681 5681 5679 5677 5676 5673 5671 5668 5665 5662 5658 5655 5654 5652 5649 5645 5642 5639 5634 5631 5628 5624 5621 5617 5612 5607 5603 5598 5593 5583 5582 5579 5574 5569 5567 5563